This is the latest recevied weather packets stored in our database for station/object N1IJV-10. If no packets are shown the sender has not sent any weather packets the latest 1 day(s).
| Time | Temp. | Humidity | Pressure | Rain* | Wind** | Luminosity | Snow |
|---|---|---|---|---|---|---|---|
| 1778005995 | 13.33° C | 47% | 1009.1 hPa | 0 mm | 0.89 m/s, 308° | 203 W/m² | - |
| 1778005692 | 13.33° C | 45% | 1008.9 hPa | 0 mm | 0.45 m/s, 69° | 220 W/m² | - |
| 1778005389 | 12.78° C | 42% | 1008.9 hPa | 0 mm | 0.89 m/s, 42° | 261 W/m² | - |
| 1778005086 | 13.33° C | 45% | 1008.8 hPa | 0 mm | 0.89 m/s, 91° | 252 W/m² | - |
| 1778004783 | 13.89° C | 45% | 1008.7 hPa | 0 mm | 0.45 m/s, 59° | 249 W/m² | - |
| 1778004480 | 13.33° C | 46% | 1008.9 hPa | 0 mm | 0.45 m/s, 40° | 256 W/m² | - |
| 1778004176 | 13.33° C | 44% | 1008.8 hPa | 0 mm | 0.89 m/s, 29° | 293 W/m² | - |
| 1778003872 | 13.33° C | 44% | 1008.8 hPa | 0 mm | 3.13 m/s, 7° | 317 W/m² | - |
| 1778003569 | 13.33° C | 44% | 1008.8 hPa | 0 mm | 2.24 m/s, 269° | 323 W/m² | - |
| 1778003265 | 13.33° C | 47% | 1008.9 hPa | 0 mm | 0.89 m/s, 65° | 370 W/m² | - |
| 1778002963 | 13.33° C | 44% | 1008.7 hPa | 0 mm | 1.34 m/s, 264° | 336 W/m² | - |
| 1778002659 | 13.33° C | 43% | 1008.4 hPa | 0 mm | 1.79 m/s, 21° | 298 W/m² | - |
| 1778002356 | 13.33° C | 44% | 1008.6 hPa | 0 mm | 1.79 m/s, 341° | 300 W/m² | - |
| 1778002053 | 13.89° C | 43% | 1008.8 hPa | 0 mm | 1.34 m/s, 174° | 383 W/m² | - |
| 1778001750 | 13.33° C | 47% | 1008.7 hPa | 0 mm | 0.45 m/s, 80° | 345 W/m² | - |
| 1778001449 | 13.89° C | 48% | 1008.6 hPa | 0 mm | 1.34 m/s, 11° | 383 W/m² | - |
| 1778001147 | 13.33° C | 45% | 1008.4 hPa | 0 mm | 0.89 m/s, 85° | 372 W/m² | - |
| 1778000843 | 13.89° C | 41% | 1008.3 hPa | 0 mm | 1.34 m/s, 292° | 414 W/m² | - |
| 1778000540 | 13.89° C | 45% | 1008.5 hPa | 0 mm | 1.34 m/s, 22° | 478 W/m² | - |
| 1778000236 | 13.89° C | 45% | 1008.3 hPa | 0 mm | 1.79 m/s, 268° | 468 W/m² | - |
| 1777999932 | 14.44° C | 43% | 1008.3 hPa | 0 mm | 0.45 m/s, 195° | 419 W/m² | - |
| 1777999627 | 13.89° C | 43% | 1008.2 hPa | 0 mm | 1.34 m/s, 327° | 485 W/m² | - |
| 1777999325 | 13.89° C | 42% | 1008.2 hPa | 0 mm | 0.89 m/s, 169° | 656 W/m² | - |
| 1777999023 | 13.89° C | 42% | 1008.3 hPa | 0 mm | 1.34 m/s, 20° | 688 W/m² | - |
| 1777998721 | 13.89° C | 44% | 1008.4 hPa | 0 mm | 0.89 m/s, 76° | 661 W/m² | - |
* Rain latest hour (hover to see other rain measurements)
** Current wind speed in m/s (hover to see current wind gust speed)